[[{"header":{"parameterUnit":"m.s-1","parameterCategory":1,"la1":30.2991,"la2":30.254,"lo1":-89.0895,"lo2":-89.0444,"dy":0.0017,"dx":0.0017,"nx":28,"ny":28,"refTime":"2023-04-23T21:00:00:Z","depth":0,"parameterNumber":2,"parameterNumberName":"U-component_of_WINDS"},"data":[0,0,0,0,0,0,0,0,0,0,0,0,0,0,0,0,0,0,0,0,0,0,0,0,0,0,0,0,0,0,0,0,0,0,0,0,0,0,0,0,0,0,0,0,0,0,0,0,0,0,0,0,0,0,0,0,0,0,-2.917,-2.9171,0,-2.9238,-2.9238,-2.9239,-2.9139,-2.9135,-2.9132,-2.9128,-2.92,-2.9205,-2.921,0,0,0,0,0,0,0,0,0,0,0,0,0,-2.8956,-2.8961,-2.917,-2.9171,-2.9172,-2.9238,-2.9238,-2.9239,-2.9139,-2.9135,-2.9131,-2.9127,-2.9198,-2.9204,-2.921,0,0,0,0,0,0,0,0,0,0,0,0,0,-2.9039,-2.8962,-2.917,-2.913,-2.9127,-2.9237,-2.9239,-2.924,-2.914,-2.9135,-2.9129,-2.9125,-2.9196,-2.9204,-2.9211,-2.9365,0,0,-2.9235,-2.9238,0,0,0,0,0,0,0,0,-2.9035,-2.9047,-2.9135,-2.9133,-2.913,-2.9174,-2.9189,-2.9282,-2.9141,-2.9135,-2.9128,-2.9122,-2.9196,-2.9203,-2.9227,-2.9368,-2.9372,-2.9236,-2.924,-2.9244,-2.9246,0,0,0,0,0,0,0,-2.9029,-2.9044,-2.9197,-2.9136,-2.9133,-2.9109,-2.9115,-2.9206,-2.9194,-2.9135,-2.9128,-2.9137,-2.9193,-2.922,-2.9228,-2.9373,-2.9235,-2.9242,-2.9247,-2.925,-2.9643,-2.9649,0,0,0,0,0,0,-2.9028,-2.904,-2.9195,-2.9199,-2.9068,-2.9117,-2.9124,-2.9165,-2.9193,-2.9192,-2.9142,-2.9132,-2.921,-2.9219,-2.9231,-2.9414,-2.9244,-2.9251,-2.9255,-2.9637,-2.9644,-2.9651,0,0,0,0,0,0,-2.9024,-2.9043,-2.9192,-2.9117,-2.9135,-2.9126,-2.9174,-2.917,-2.9196,-2.9198,-2.9195,-2.9172,-2.9206,-2.922,-2.9332,-2.9415,-2.9255,-2.9262,-2.9631,-2.964,-2.9648,-2.978,0,0,0,0,0,0,-2.9018,-2.9042,-2.91,-2.9119,-2.9139,-2.9293,-2.9179,-2.9175,-2.921,-2.9198,-2.9225,-2.9225,-2.9203,-2.9321,-2.934,-2.9422,-2.9268,-2.9623,-2.9635,-2.9645,-2.9769,-2.9792,-2.9813,0,0,0,0,0,-2.9011,-2.9135,-2.9104,-2.9123,-2.9212,-2.9298,-2.9309,-2.9281,-2.9217,-2.9276,-2.9276,-2.9224,-2.9402,-2.9334,-2.9354,-2.944,-2.9618,-2.9631,-2.9644,-2.9759,-2.9788,-2.9812,0,0,0,0,0,0,-2.9127,-2.9137,-2.9102,-2.9237,-2.9267,-2.9281,-2.9354,-2.9312,-2.9362,-2.9349,-2.9312,-2.9319,-2.944,-2.945,-2.9374,-2.959,-2.9499,-2.9517,-2.958,-2.9607,-2.9629,-2.9625,-2.9274,0,0,0,0,0,-2.9168,-2.9237,-2.9242,-2.936,-2.9377,-2.9363,-2.94,-2.9375,-2.9405,-2.9418,-2.9427,-2.9459,-2.9522,-2.9565,-2.9622,-2.9768,-2.9773,-2.9837,-2.9859,-2.9877,-2.9894,-2.9973,-3.0002,-2.9693,-2.9693,-2.9693,0,0,-2.9255,-2.9268,-2.9315,-2.9384,-2.9405,-2.9478,-2.9375,-2.9456,-2.951,-2.943,-2.9538,-2.9545,-2.9578,-2.9709,-2.9766,-2.9721,-2.998,-2.9894,-2.9909,-2.9916,-2.9989,-3.0018,-3.0045,-2.9702,-2.97,-2.9699,0,0,-2.945,-2.9466,-2.9567,-2.9589,-2.9621,-2.9611,-2.9635,-2.9655,-2.9657,-2.9763,-2.9705,-2.9768,-2.9877,-2.9904,-2.9931,-3.0134,-3.0088,-3.0154,-3.0271,-3.0348,-3.0372,-3.0393,-3.0468,-3.0494,-3.017,-3.017,-3.017,0,-2.9554,-2.966,-2.9624,-2.971,-2.9743,-2.9672,-2.9774,-2.9797,-2.9847,-2.9872,-2.9819,-2.9955,-2.9972,-3.0108,-3.0157,-3.0181,-3.0208,-3.0152,-3.0371,-3.0392,-3.0412,-3.0482,-3.051,-3.0178,-3.0177,-3.0176,-3.0175,0,-2.9787,-2.9862,-2.9939,-2.9988,-3.0029,-3.0123,-3.0101,-3.0147,-3.0118,-3.0113,-3.0222,-3.024,-3.0301,-3.033,-3.0303,-3.0462,-3.0433,-3.0377,-3.0285,-3.045,-3.0515,-3.0542,-3.0189,-3.0186,-3.0184,-3.0182,0,0,-3.0061,-3.0087,-3.0116,-3.0138,-3.0167,-3.0224,-3.0314,-3.0372,-3.0413,-3.0449,-3.0524,-3.0617,-3.0564,-3.0596,-3.057,-3.0638,-3.0799,-3.0573,-3.0573,-3.0616,-3.0977,-3.1022,-3.1054,-3.0767,-3.0772,-3.0776,-3.0975,0,-3.0257,-3.0412,-3.0381,-3.0533,-3.0602,-3.0535,-3.0613,-3.064,-3.0637,-3.0695,-3.0692,-3.0759,-3.0684,-3.0703,-3.0766,-3.0766,-3.0872,-3.0751,-3.0839,-3.0842,-3.0836,-3.1088,-3.1135,-3.1323,-3.1,-3.1005,-3.1008,0,-3.0507,-3.0552,-3.0711,-3.0728,-3.0756,-3.0827,-3.0878,-3.0934,-3.0962,-3.0955,-3.099,-3.0951,-3.1041,-3.0945,-3.1069,-3.0988,-3.1021,-3.1026,-3.1033,-3.1043,-3.0937,-3.1107,-3.1382,-3.1411,-3.1047,-3.1044,-3.1041,0,-3.0694,-3.0793,-3.0901,-3.0921,-3.0944,-3.0995,-3.1007,-3.103,-3.1067,-3.1111,-3.1134,-3.1188,-3.1219,-3.1262,-3.1239,-3.1171,-3.1367,-3.127,-3.1366,-3.1367,-3.1413,-3.1411,-3.17,-3.143,-3.143,-3.1429,-3.1428,0,-3.0918,-3.1018,-3.0985,-3.1052,-3.1162,-3.1125,-3.1236,-3.1239,-3.126,-3.1327,-3.1271,-3.1335,-3.1299,-3.136,-3.1342,-3.1449,-3.1462,-3.146,-3.1455,-3.1467,-3.1468,-3.1491,-3.1478,-3.1436,-3.1435,-3.1433,-3.1432,0,-3.1146,-3.1128,-3.1242,-3.1253,-3.1258,-3.1339,-3.1349,-3.1411,-3.1403,-3.1488,-3.1506,-3.1494,-3.1563,-3.1543,-3.1618,-3.1606,-3.174,-3.1717,-3.1731,-3.1727,-3.1824,-3.1817,-3.2141,-3.2182,-3.1883,-3.1886,-3.1888,0,-3.1292,-3.1368,-3.1387,-3.1427,-3.1443,-3.1508,-3.1545,-3.1511,-3.1552,-3.1589,-3.1647,-3.1711,-3.176,-3.1874,-3.1872,-3.1929,-3.1908,-3.2018,-3.1917,-3.1926,-3.1913,-3.191,-3.1918,-3.2039,-3.2043,-3.2045,-3.2048,0,-3.1553,-3.154,-3.1595,-3.1647,-3.1692,-3.1732,-3.1766,-3.1802,-3.177,-3.1819,-3.1888,-3.1927,-3.2002,-3.2067,-3.2118,-3.213,-3.2085,-3.2079,-3.2104,-3.2119,-3.2125,-3.2125,-3.1789,-3.2072,-3.207,-3.2068,-3.2067,-3.2066,-3.1747,-3.1811,-3.1834,-3.1897,-3.1919,-3.1952,-3.2011,-3.201,-3.2067,-3.2125,-3.2101,-3.2181,-3.2207,-3.2271,-3.229,-3.2352,-3.2311,-3.2347,-3.2357,-3.2368,-3.2381,-3.2113,-3.2361,-3.2361,-3.236,-3.2359,-3.2359,0,-3.2007,-3.2018,-3.2076,-3.2126,-3.2175,-3.2125,-3.216,-3.2205,-3.2276,-3.2303,-3.2353,-3.2432,-3.2494,-3.2496,-3.2554,-3.2604,-3.2584,-3.262,-3.2618,-3.2622,-3.2414,-3.2387,-3.2635,-3.2635,-3.2635,-3.2635,-3.2635,-3.2635,-3.2149,-3.2255,-3.2244,-3.236,-3.237,-3.2448,-3.2473,-3.2503,-3.2524,-3.2616,-3.2666,-3.2666,-3.2684,-3.2742,-3.2797,-3.2795,-3.2821,-3.2865,-3.2857,-3.2664,-3.2636,-3.261,-3.2585,-3.287,-3.2871,-3.3059,-3.3061,-3.3063]},{"header":{"parameterUnit":"m.s-1","parameterCategory":1,"la1":30.2991,"la2":30.254,"lo1":-89.0895,"lo2":-89.0444,"dy":0.0017,"dx":0.0017,"nx":28,"ny":28,"refTime":"2023-04-23T21:00:00:Z","depth":0,"parameterNumber":3,"parameterNumberName":"V-component_of_WINDS"},"data":[0,0,0,0,0,0,0,0,0,0,0,0,0,0,0,0,0,0,0,0,0,0,0,0,0,0,0,0,0,0,0,0,0,0,0,0,0,0,0,0,0,0,0,0,0,0,0,0,0,0,0,0,0,0,0,0,0,0,-4.3053,-4.3054,0,-4.3117,-4.3118,-4.3118,-4.307,-4.3068,-4.3066,-4.3064,-4.3126,-4.3129,-4.3133,0,0,0,0,0,0,0,0,0,0,0,0,0,-4.2885,-4.2888,-4.3053,-4.3054,-4.3055,-4.3117,-4.3118,-4.3118,-4.3071,-4.3068,-4.3066,-4.3063,-4.3125,-4.3129,-4.3133,0,0,0,0,0,0,0,0,0,0,0,0,0,-4.2954,-4.2889,-4.3053,-4.3038,-4.3038,-4.3117,-4.3118,-4.3119,-4.3071,-4.3068,-4.3065,-4.3062,-4.3123,-4.3128,-4.3134,-4.3229,0,0,-4.315,-4.3152,0,0,0,0,0,0,0,0,-4.295,-4.296,-4.304,-4.304,-4.3039,-4.3083,-4.3081,-4.3156,-4.3072,-4.3058,-4.3064,-4.3061,-4.3114,-4.312,-4.3138,-4.3232,-4.3235,-4.3151,-4.3154,-4.3156,-4.3158,0,0,0,0,0,0,0,-4.2946,-4.2957,-4.3078,-4.3041,-4.304,-4.3027,-4.3033,-4.3095,-4.3103,-4.3059,-4.3056,-4.3064,-4.3113,-4.3133,-4.3139,-4.3235,-4.315,-4.3155,-4.3158,-4.3161,-4.3408,-4.3411,0,0,0,0,0,0,-4.2943,-4.2954,-4.3076,-4.308,-4.2986,-4.3033,-4.304,-4.3072,-4.3102,-4.3103,-4.3067,-4.3062,-4.3126,-4.3133,-4.3141,-4.3253,-4.3156,-4.3161,-4.3164,-4.3404,-4.3408,-4.3412,0,0,0,0,0,0,-4.2939,-4.2954,-4.3074,-4.3016,-4.303,-4.3039,-4.3075,-4.3075,-4.3095,-4.3108,-4.3108,-4.3087,-4.3123,-4.3134,-4.3207,-4.3255,-4.3163,-4.3168,-4.34,-4.3406,-4.341,-4.3479,0,0,0,0,0,0,-4.2935,-4.2953,-4.2991,-4.3017,-4.3033,-4.314,-4.3078,-4.3078,-4.3105,-4.3099,-4.3126,-4.3128,-4.3122,-4.3199,-4.3213,-4.326,-4.3173,-4.3396,-4.3403,-4.3409,-4.3472,-4.3485,-4.3497,0,0,0,0,0,-4.2929,-4.3007,-4.2993,-4.3008,-4.3081,-4.3143,-4.3152,-4.3145,-4.3109,-4.3146,-4.3153,-4.3127,-4.3248,-4.3207,-4.3222,-4.3272,-4.3393,-4.3401,-4.3408,-4.3467,-4.3483,-4.3496,0,0,0,0,0,0,-4.2986,-4.3011,-4.2995,-4.3085,-4.3112,-4.3135,-4.3181,-4.3162,-4.32,-4.3192,-4.318,-4.3186,-4.3263,-4.3275,-4.323,-4.3364,-4.3314,-4.3325,-4.3354,-4.3369,-4.3381,-4.3376,-4.3177,0,0,0,0,0,-4.3009,-4.3059,-4.3077,-4.3155,-4.3169,-4.3173,-4.32,-4.3192,-4.3219,-4.323,-4.3243,-4.327,-4.3313,-4.3342,-4.3383,-4.3474,-4.3478,-4.3515,-4.3527,-4.3537,-4.3546,-4.3593,-4.3609,-4.3437,-4.3437,-4.3436,0,0,-4.3057,-4.3077,-4.3109,-4.3166,-4.3187,-4.3237,-4.3183,-4.3239,-4.3275,-4.3238,-4.3308,-4.3319,-4.3347,-4.3429,-4.3466,-4.3441,-4.3595,-4.3547,-4.3555,-4.3558,-4.3602,-4.3618,-4.3633,-4.3442,-4.3441,-4.344,0,0,-4.3169,-4.3191,-4.3256,-4.3278,-4.3309,-4.3311,-4.3327,-4.3352,-4.3358,-4.3428,-4.3401,-4.3443,-4.3519,-4.3539,-4.356,-4.3679,-4.3655,-4.3692,-4.3756,-4.3801,-4.3815,-4.3827,-4.3867,-4.3882,-4.3701,-4.3701,-4.3702,0,-4.3225,-4.3301,-4.3292,-4.335,-4.3374,-4.3344,-4.3409,-4.343,-4.3473,-4.349,-4.3462,-4.3555,-4.3572,-4.3657,-4.3686,-4.3705,-4.372,-4.3689,-4.3814,-4.3826,-4.3837,-4.3875,-4.389,-4.3706,-4.3705,-4.3705,-4.3704,0,-4.3366,-4.3419,-4.3467,-4.351,-4.3541,-4.3602,-4.3601,-4.3632,-4.3621,-4.3625,-4.3696,-4.3715,-4.3758,-4.3778,-4.3768,-4.3861,-4.3845,-4.3816,-4.3765,-4.3857,-4.3893,-4.3908,-4.3712,-4.371,-4.3709,-4.3708,0,0,-4.3517,-4.3553,-4.3571,-4.3589,-4.3621,-4.366,-4.3719,-4.3762,-4.3788,-4.3819,-4.3866,-4.393,-4.3903,-4.3926,-4.3917,-4.3957,-4.4047,-4.3923,-4.3923,-4.3944,-4.4149,-4.417,-4.4187,-4.4032,-4.4035,-4.4037,-4.4146,0,-4.3629,-4.3733,-4.3726,-4.3822,-4.3869,-4.384,-4.389,-4.3914,-4.3919,-4.3958,-4.3963,-4.4008,-4.397,-4.3983,-4.4022,-4.4028,-4.4088,-4.402,-4.4074,-4.4076,-4.4066,-4.4206,-4.4228,-4.433,-4.416,-4.4162,-4.4164,0,-4.3775,-4.3811,-4.3912,-4.3935,-4.3954,-4.4,-4.4037,-4.4076,-4.4102,-4.4102,-4.4128,-4.4112,-4.4168,-4.4117,-4.4193,-4.4148,-4.4169,-4.4175,-4.4179,-4.4182,-4.4125,-4.4212,-4.4363,-4.4378,-4.4186,-4.4185,-4.4183,0,-4.3872,-4.3946,-4.4015,-4.4031,-4.406,-4.4093,-4.4106,-4.4129,-4.4154,-4.4187,-4.4203,-4.4241,-4.4262,-4.4291,-4.4285,-4.4249,-4.4363,-4.4311,-4.4363,-4.4363,-4.4387,-4.4385,-4.4542,-4.4404,-4.4403,-4.4403,-4.4403,0,-4.3998,-4.4061,-4.4059,-4.4101,-4.417,-4.416,-4.4228,-4.4237,-4.4257,-4.4299,-4.4276,-4.4316,-4.4306,-4.4345,-4.4341,-4.4403,-4.4413,-4.4414,-4.4411,-4.4415,-4.4415,-4.4428,-4.442,-4.4407,-4.4406,-4.4405,-4.4405,0,-4.4118,-4.412,-4.4193,-4.4214,-4.4221,-4.427,-4.4287,-4.4326,-4.4329,-4.4383,-4.4394,-4.4398,-4.4443,-4.444,-4.449,-4.4487,-4.4564,-4.4554,-4.4555,-4.4553,-4.4603,-4.4598,-4.4773,-4.4795,-4.4644,-4.4645,-4.4646,0,-4.4198,-4.4245,-4.4272,-4.4299,-4.4314,-4.4358,-4.4384,-4.4376,-4.4404,-4.4435,-4.447,-4.4512,-4.4546,-4.4618,-4.4624,-4.4661,-4.4651,-4.471,-4.4657,-4.4658,-4.465,-4.4646,-4.465,-4.472,-4.4722,-4.4723,-4.4724,0,-4.4339,-4.4336,-4.4376,-4.4415,-4.4446,-4.4476,-4.4504,-4.4527,-4.4521,-4.4553,-4.4598,-4.4624,-4.4675,-4.4717,-4.4752,-4.4764,-4.4742,-4.4741,-4.4755,-4.4758,-4.4756,-4.4756,-4.4582,-4.4737,-4.4736,-4.4735,-4.4734,-4.4733,-4.4439,-4.4479,-4.4503,-4.4547,-4.4567,-4.4592,-4.463,-4.4637,-4.4675,-4.4716,-4.4709,-4.4759,-4.4781,-4.4827,-4.4842,-4.4879,-4.4858,-4.4878,-4.4883,-4.4888,-4.4893,-4.4751,-4.4886,-4.4886,-4.4885,-4.4885,-4.4885,0,-4.4577,-4.4591,-4.4631,-4.467,-4.4704,-4.4682,-4.471,-4.4739,-4.4785,-4.4807,-4.4841,-4.4891,-4.4931,-4.494,-4.4978,-4.5006,-4.4997,-4.5016,-4.5013,-4.5016,-4.4911,-4.4894,-4.5023,-4.5023,-4.5023,-4.5023,-4.5023,-4.5023,-4.4652,-4.4718,-4.4718,-4.4793,-4.4805,-4.4855,-4.4873,-4.4896,-4.4914,-4.4972,-4.5005,-4.5011,-4.5028,-4.5066,-4.5101,-4.5102,-4.5116,-4.5139,-4.5136,-4.5037,-4.5024,-4.501,-4.4995,-4.5142,-4.5143,-4.5238,-4.5239,-4.524]}]]